Date,TemperatureHighF,TemperatureAvgF,TemperatureLowF,DewpointHighF,DewpointAvgF,DewpointLowF,HumidityHigh,HumidityAvg,HumidityLow,PressureMaxIn,PressureMinIn,WindSpeedMaxMPH,WindSpeedAvgMPH,GustSpeedMaxMPH,PrecipitationSumIn
2013-3-1,67.8,50.4,33.8,31.7,13.7,-12.5,51,30,4,29.41,29.24,19,4,19,0.00
2013-3-2,62.6,50.1,37.9,28.1,24.1,20.8,51,37,25,29.53,29.35,16,4,16,0.00
2013-3-3,74.3,58.4,42.1,37.5,22.6,-20.0,43,29,2,29.35,29.03,20,7,20,0.00
2013-3-4,88.9,69.6,55.8,48.7,41.5,8.5,72,41,5,29.03,28.82,17,6,17,0.00
2013-3-5,69.1,56.7,44.6,49.7,12.2,-12.5,55,25,4,29.47,28.91,29,7,29,0.00
2013-3-6,64.0,51.0,37.4,20.9,-0.1,-12.1,38,16,5,29.56,29.32,10,3,10,0.00
2013-3-7,71.8,58.3,44.8,50.3,36.6,-2.0,67,46,11,29.35,29.20,18,5,18,0.00
2013-3-8,64.4,60.3,57.0,62.5,55.6,48.9,94,85,67,29.26,29.15,17,6,17,0.00
2013-3-9,72.1,66.0,61.2,66.3,61.9,58.0,94,87,75,29.15,28.76,27,8,27,0.35
2013-3-10,63.7,58.2,48.9,60.1,40.0,26.3,94,54,35,29.24,28.85,21,6,21,0.71
2013-3-11,67.5,51.1,35.2,30.4,24.0,-11.8,77,41,7,29.29,29.12,17,4,17,0.00
2013-3-12,78.8,60.5,44.6,38.6,21.0,-18.9,43,29,2,29.35,29.18,15,4,15,0.00
2013-3-13,74.7,61.9,49.1,38.6,32.0,25.2,39,33,23,29.53,29.35,13,5,13,0.00
2013-3-14,77.0,63.2,51.1,51.2,41.7,31.1,79,48,31,29.50,29.32,17,5,17,0.00
2013-3-15,79.9,66.7,55.2,53.2,46.4,36.6,85,53,25,29.35,29.12,19,7,19,0.00
2013-3-16,83.5,69.1,59.0,60.2,52.8,44.0,83,59,31,29.12,28.85,21,-16,21,0.00
2013-3-17,83.3,71.7,65.8,61.7,57.7,53.4,80,63,41,28.94,28.79,19,-81,19,0.00
2013-3-18,86.5,72.4,62.4,64.1,53.2,40.4,92,57,25,29.09,28.85,17,5,17,0.00
2013-3-19,83.5,65.9,51.8,59.7,47.6,38.6,69,52,39,29.15,28.97,18,4,18,0.00
2013-3-20,71.2,60.9,51.8,50.8,42.6,32.6,88,55,30,29.35,29.12,28,-31,28,0.16
2013-3-21,75.4,64.4,55.9,59.3,48.0,33.3,80,56,39,29.15,28.73,20,-124,20,0.00
2013-3-22,84.7,70.4,55.0,64.8,58.2,43.1,90,68,43,28.91,28.76,15,4,17,0.00
2013-3-23,80.6,60.6,50.2,57.3,49.8,43.2,86,69,41,28.94,28.73,12,-277,12,0.00
2013-3-24,60.3,51.5,41.5,55.2,30.4,20.5,85,47,26,29.26,28.82,26,-76,26,0.00
2013-3-25,59.9,47.8,34.7,23.0,11.5,-10.8,43,28,6,29.50,29.26,12,-48,12,0.00
2013-3-26,65.5,50.4,33.1,26.1,10.3,-12.5,50,26,4,29.59,29.38,11,-50,11,0.00
2013-3-27,68.7,56.7,43.5,42.1,32.9,16.6,56,41,27,29.41,29.26,18,-1,18,0.00
2013-3-28,73.0,62.8,54.9,55.9,52.1,42.1,80,68,53,29.29,29.24,16,6,16,0.00
2013-3-29,75.9,67.3,58.5,59.0,54.6,50.9,92,66,44,29.29,29.18,16,6,16,0.00
2013-3-30,82.4,70.9,64.0,60.8,57.9,53.9,86,66,41,29.24,29.00,17,6,17,0.00
2013-3-31,77.2,69.7,65.5,66.7,62.1,55.4,87,78,58,29.09,28.97,22,3,22,0.24